Location: Jetmore
(38.0845°N, 99.8935°W)
Time: 11:52:55
(UTC+00:00)

Envisat - Visible Passes

Search period start: 18 September 2021 00:00
Search period end: 28 September 2021 00:00
Orbit: 764 x 766 km, 98.2° (Epoch: 17 September)

Date Brightness Start Highest point End Pass type
(mag) Time Alt. Az. Time Alt. Az. Time Alt. Az.
18 Sep 3.4 11:42:05 10° NNE 11:47:10 71° ESE 11:52:13 10° S visible
19 Sep 5.0 11:05:45 10° NE 11:10:13 30° E 11:14:38 10° SSE visible
20 Sep 6.0 10:30:45 10° ENE 10:33:03 13° E 10:35:20 10° ESE visible
21 Sep 3.8 11:30:40 10° NNE 11:35:39 55° E 11:40:36 10° S visible
22 Sep 5.4 10:54:34 10° NE 10:58:38 24° E 11:02:39 10° SSE visible
23 Sep 3.0 11:55:54 10° N 12:01:00 83° WNW 12:06:03 10° SSW visible
24 Sep 4.3 11:19:18 10° NNE 11:24:07 42° E 11:28:54 10° S visible
25 Sep 5.8 10:43:33 10° NE 10:47:02 18° E 10:50:30 10° SE visible
26 Sep 3.2 11:44:24 10° NNE 11:49:29 77° ESE 11:54:33 10° S visible
27 Sep 4.8 11:07:58 10° NNE 11:12:32 33° E 11:17:05 10° SSE visible
